EW0642 Weather Reports


Display with metric or nautical units.
time (UTC)temp
F
wind
direction
speed
MPH
gust
MPH
rain 1hr
in
rain 24hr
in
rain mn
in
humidity
%
barometer
mb
20260506224025 70 182 1.0 4.0 0.00 0.12 0.12 78 1008.1
20260506223503 70 196 2.0 9.0 0.00 0.12 0.12 77 1008.1
20260506223004 70 190 2.0 9.0 0.00 0.12 0.12 78 1008.1
20260506222504 70 180 2.0 6.0 0.00 0.12 0.12 77 1008.1
20260506222024 70 176 2.0 7.0 0.00 0.12 0.12 77 1008.2
20260506221504 70 199 3.0 8.0 0.00 0.12 0.12 77 1008.1
20260506221025 71 201 3.0 8.0 0.00 0.12 0.12 76 1008.2
20260506220524 71 187 3.0 9.0 0.00 0.12 0.12 76 1008.2
20260506220004 71 182 2.0 9.0 0.00 0.12 0.12 76 1008.1
20260506215503 71 188 3.0 11.0 0.00 0.12 0.12 76 1008.2
20260506215003 71 185 3.0 11.0 0.00 0.12 0.12 75 1008.1
20260506214525 71 177 3.0 9.0 0.00 0.12 0.12 75 1008.0
20260506214004 71 177 4.0 10.0 0.00 0.12 0.12 75 1007.9
20260506213503 72 182 3.0 10.0 0.00 0.12 0.12 74 1008.0
20260506213003 72 184 3.0 10.0 0.00 0.12 0.12 76 1007.9
20260506212524 72 196 4.0 10.0 0.00 0.12 0.12 75 1007.8
20260506212024 72 210 3.0 9.0 0.00 0.12 0.12 75 1007.8
20260506211524 72 201 2.0 9.0 0.00 0.12 0.12 75 1007.9
20260506211025 71 198 3.0 9.0 0.00 0.12 0.12 74 1007.8
20260506210524 72 195 3.0 9.0 0.00 0.12 0.12 75 1007.7
20260506210024 72 195 2.0 9.0 0.00 0.12 0.12 75 1007.6
20260506205524 71 188 3.0 8.0 0.00 0.12 0.12 75 1007.6
20260506205005 71 186 5.0 15.0 0.00 0.12 0.12 74 1007.5
20260506204524 72 184 5.0 15.0 0.00 0.12 0.12 74 1007.6
20260506204025 72 181 5.0 12.0 0.00 0.12 0.12 74 1007.6
20260506203503 72 186 4.0 12.0 0.00 0.12 0.12 73 1007.6
20260506203003 72 189 4.0 11.0 0.00 0.12 0.12 74 1007.6
20260506202503 71 179 5.0 16.0 0.00 0.12 0.12 74 1007.4
20260506202004 72 182 5.0 16.0 0.00 0.12 0.12 73 1007.7
20260506201503 72 196 5.0 16.0 0.00 0.12 0.12 72 1007.6
20260506201004 72 179 5.0 14.0 0.00 0.12 0.12 74 1007.6
20260506200524 72 177 5.0 14.0 0.00 0.12 0.12 73 1007.4
20260506200025 72 186 5.0 14.0 0.00 0.12 0.12 74 1007.5
20260506195524 71 181 5.0 12.0 0.00 0.12 0.12 74 1007.5
20260506195024 71 177 6.0 17.0 0.00 0.12 0.12 74 1007.5
20260506194524 71 174 6.0 17.0 0.00 0.12 0.12 74 1007.6
20260506194003 71 185 5.0 16.0 0.00 0.12 0.12 74 1007.7
20260506193525 71 186 7.0 16.0 0.00 0.12 0.12 74 1007.6
20260506193004 72 196 6.0 15.0 0.00 0.12 0.12 73 1007.7
20260506192503 72 208 5.0 12.0 0.00 0.12 0.12 75 1007.7
20260506192003 71 183 5.0 12.0 0.00 0.12 0.12 75 1007.8
20260506191503 71 179 4.0 12.0 0.00 0.12 0.12 77 1007.9
20260506191024 70 185 4.0 14.0 0.00 0.12 0.12 77 1007.9
20260506190524 69 183 7.0 14.0 0.00 0.12 0.12 77 1008.0
20260506190024 69 174 5.0 13.0 0.00 0.12 0.12 77 1008.1
20260506185503 69 170 5.0 21.0 0.00 0.12 0.12 78 1008.1
20260506185004 69 175 6.0 21.0 0.00 0.12 0.12 77 1008.2
20260506184503 69 182 7.0 22.0 0.00 0.12 0.12 78 1008.3
20260506184024 69 184 6.0 22.0 0.01 0.12 0.12 77 1008.3
20260506183503 69 175 4.0 13.0 0.01 0.12 0.12 78 1008.3
20260506183024 69 184 5.0 13.0 0.01 0.12 0.12 78 1008.5
20260506182503 69 194 5.0 14.0 0.01 0.12 0.12 79 1008.5
20260506182003 68 190 6.0 17.0 0.01 0.12 0.12 80 1008.5
20260506181524 68 189 6.0 17.0 0.01 0.12 0.12 80 1008.6
20260506181024 68 184 6.0 20.0 0.01 0.12 0.12 81 1008.6
20260506180524 67 180 6.0 20.0 0.01 0.12 0.12 82 1008.7
20260506180025 67 176 5.0 17.0 0.01 0.12 0.12 81 1008.8
20260506175524 67 179 5.0 18.0 0.02 0.12 0.12 82 1008.7
20260506175025 66 188 7.0 21.0 0.02 0.12 0.12 83 1008.7
20260506174503 66 183 6.0 21.0 0.02 0.12 0.12 83 1008.8
20260506174004 66 183 5.0 20.0 0.01 0.11 0.11 84 1008.8
20260506173526 66 194 5.0 15.0 0.01 0.11 0.11 85 1008.7
20260506173005 66 188 5.0 14.0 0.02 0.11 0.11 86 1008.9
20260506172505 65 176 6.0 20.0 0.02 0.11 0.11 86 1009.0
20260506172027 65 177 6.0 20.0 0.02 0.11 0.11 87 1009.0
20260506171526 65 187 5.0 13.0 0.02 0.11 0.11 88 1009.0
20260506171026 65 185 5.0 12.0 0.02 0.11 0.11 89 1008.9
20260506170506 65 169 4.0 10.0 0.03 0.11 0.11 89 1008.9
20260506170005 64 173 4.0 10.0 0.03 0.11 0.11 90 1009.0
20260506165526 64 165 4.0 13.0 0.02 0.10 0.10 90 1009.0
20260506165005 64 174 5.0 13.0 0.02 0.10 0.10 90 1009.2
20260506164506 64 182 4.0 11.0 0.03 0.10 0.10 91 1009.2
20260506164006 64 179 4.0 18.0 0.03 0.10 0.10 91 1009.2
20260506163528 64 177 5.0 18.0 0.03 0.10 0.10 91 1009.1
20260506163026 63 174 4.0 13.0 0.02 0.09 0.09 91 1009.1
20260506162526 63 171 4.0 13.0 0.03 0.09 0.09 92 1009.1
20260506162026 63 155 3.0 8.0 0.03 0.09 0.09 92 1009.1
20260506161505 63 142 3.0 12.0 0.03 0.09 0.09 93 1009.1
20260506161026 62 148 4.0 12.0 0.04 0.09 0.09 92 1009.2
20260506160526 62 165 4.0 10.0 0.03 0.08 0.08 92 1009.5
20260506160006 62 174 4.0 16.0 0.03 0.08 0.08 92 1009.6
20260506155526 62 168 3.0 16.0 0.04 0.08 0.08 92 1009.6
20260506155005 62 153 3.0 12.0 0.04 0.08 0.08 92 1009.5
20260506154526 62 166 3.0 10.0 0.03 0.07 0.07 92 1009.6
20260506154026 62 172 3.0 8.0 0.04 0.07 0.07 92 1009.4
20260506153528 62 161 3.0 7.0 0.04 0.07 0.07 92 1009.3
20260506153005 62 155 3.0 11.0 0.04 0.07 0.07 92 1009.7
20260506152506 62 163 3.0 11.0 0.04 0.06 0.06 92 1009.8
20260506152027 62 172 3.0 10.0 0.04 0.06 0.06 92 1010.0
20260506151505 62 178 4.0 10.0 0.04 0.06 0.06 91 1010.2
20260506151027 62 179 4.0 15.0 0.04 0.05 0.05 91 1010.2
20260506150505 62 172 3.0 15.0 0.04 0.05 0.05 91 1010.2
20260506150026 62 158 2.0 9.0 0.04 0.05 0.05 90 1010.2
20260506145505 62 164 3.0 11.0 0.03 0.04 0.04 90 1010.3
20260506145005 62 171 4.0 11.0 0.04 0.04 0.04 89 1010.2
20260506144505 62 168 4.0 9.0 0.04 0.04 0.04 88 1010.4
20260506144026 62 165 3.0 9.0 0.03 0.03 0.03 88 1010.3
20260506143505 63 162 2.0 9.0 0.03 0.03 0.03 87 1010.2
20260506143026 63 148 2.0 10.0 0.03 0.03 0.03 87 1010.2
20260506142526 63 156 2.0 10.0 0.02 0.02 0.03 86 1010.1
20260506142005 63 164 3.0 8.0 0.02 0.02 0.02 86 1010.2
20260506141526 63 171 3.0 8.0 0.02 0.02 0.02 85 1010.2
20260506141005 64 173 2.0 7.0 0.01 0.01 0.01 84 1010.4
20260506140506 64 176 3.0 11.0 0.01 0.01 0.01 82 1010.3
20260506140006 64 184 4.0 11.0 0.01 0.01 0.01 81 1010.5
20260506135505 65 175 3.0 10.0 0.01 0.01 0.01 81 1010.5
20260506135026 65 173 4.0 13.0 0.00 0.00 0.00 80 1010.6
20260506134505 65 176 4.0 13.0 0.00 0.00 0.00 78 1010.7
20260506134026 65 180 3.0 12.0 0.00 0.00 0.00 78 1010.7
20260506133505 65 181 3.0 9.0 0.00 0.00 0.00 77 1010.5
20260506133026 65 175 3.0 12.0 0.00 0.00 0.00 78 1010.4
20260506132526 65 168 4.0 12.0 0.00 0.00 0.00 77 1010.3
20260506132027 66 169 3.0 12.0 0.00 0.00 0.00 77 1010.2
20260506131527 66 166 3.0 8.0 0.00 0.00 0.00 77 1010.2
20260506131026 66 168 3.0 9.0 0.00 0.00 0.00 76 1010.0
20260506130505 66 179 4.0 10.0 0.00 0.00 0.00 75 1010.0
20260506130006 66 177 4.0 15.0 0.00 0.00 0.00 75 1010.0
20260506125507 66 176 3.0 15.0 0.00 0.00 0.00 75 1010.0
20260506125005 66 169 3.0 12.0 0.00 0.00 0.00 76 1010.0
20260506124527 66 165 4.0 12.0 0.00 0.00 0.00 75 1010.1
20260506124028 66 161 3.0 9.0 0.00 0.00 0.00 76 1010.2
20260506123505 66 161 3.0 12.0 0.00 0.00 0.00 76 1010.2
20260506123005 66 167 4.0 12.0 0.00 0.00 0.00 76 1010.3
20260506122526 66 173 5.0 14.0 0.00 0.00 0.00 76 1010.4
20260506122005 66 177 4.0 14.0 0.00 0.00 0.00 76 1010.4
20260506121526 66 180 3.0 10.0 0.00 0.00 0.00 76 1010.4
20260506121027 66 168 4.0 10.0 0.00 0.00 0.00 75 1010.4
20260506120505 66 173 5.0 14.0 0.00 0.00 0.00 75 1010.3
20260506120005 66 177 6.0 14.0 0.00 0.00 0.00 75 1010.2
20260506115505 66 170 5.0 11.0 0.00 0.00 0.00 75 1010.2
20260506115026 66 163 4.0 12.0 0.00 0.00 0.00 75 1010.1
20260506114526 66 177 4.0 12.0 0.00 0.00 0.00 75 1010.1
20260506114026 66 169 5.0 13.0 0.00 0.00 0.00 75 1010.1
20260506113526 66 159 5.0 13.0 0.00 0.00 0.00 75 1010.0
20260506113005 66 168 5.0 14.0 0.00 0.00 0.00 75 1009.8
20260506112505 66 172 5.0 15.0 0.00 0.00 0.00 76 1009.9
20260506112026 66 172 4.0 15.0 0.00 0.00 0.00 76 1009.9
20260506111526 66 163 3.0 14.0 0.00 0.00 0.00 77 1009.7
20260506111026 65 159 4.0 16.0 0.00 0.00 0.00 77 1009.7
20260506110507 65 166 4.0 16.0 0.00 0.00 0.00 77 1009.7
20260506110027 65 172 3.0 13.0 0.00 0.00 0.00 77 1009.6
20260506105505 65 167 3.0 13.0 0.00 0.00 0.00 77 1009.7
20260506105026 65 168 4.0 14.0 0.00 0.00 0.00 77 1009.6
20260506104526 65 168 4.0 14.0 0.00 0.00 0.00 77 1009.6
20260506104005 65 173 4.0 13.0 0.00 0.00 0.00 77 1009.6
20260506103526 65 176 4.0 13.0 0.00 0.00 0.00 77 1009.6
20260506103028 65 165 4.0 13.0 0.00 0.00 0.00 77 1009.5
20260506102526 65 164 4.0 10.0 0.00 0.00 0.00 77 1009.6
20260506102006 65 173 3.0 11.0 0.00 0.00 0.00 77 1009.7
20260506101505 65 158 3.0 11.0 0.00 0.00 0.00 77 1009.5
20260506101006 65 154 3.0 12.0 0.00 0.00 0.00 77 1009.6
20260506100505 65 165 4.0 12.0 0.00 0.00 0.00 77 1009.5
20260506100026 65 177 5.0 12.0 0.00 0.00 0.00 76 1009.5
20260506095505 65 184 5.0 13.0 0.00 0.00 0.00 76 1009.6
20260506095026 65 173 4.0 13.0 0.00 0.00 0.00 76 1009.7
20260506094526 65 164 3.0 12.0 0.00 0.00 0.00 76 1009.6
20260506094006 65 173 3.0 9.0 0.00 0.00 0.00 76 1009.6
20260506093526 65 171 3.0 9.0 0.00 0.00 0.00 76 1009.6
20260506093005 66 169 4.0 13.0 0.00 0.00 0.00 75 1009.6
20260506092505 66 165 4.0 13.0 0.00 0.00 0.00 75 1009.7
20260506092005 66 166 4.0 14.0 0.00 0.00 0.00 75 1009.7
20260506091505 66 168 4.0 14.0 0.00 0.00 0.00 75 1009.8
20260506091007 66 159 3.0 10.0 0.00 0.00 0.00 74 1009.6
20260506090505 66 161 4.0 16.0 0.00 0.00 0.00 74 1009.7
20260506090005 66 167 5.0 16.0 0.00 0.00 0.00 74 1009.8
20260506085505 66 169 5.0 12.0 0.00 0.00 0.00 74 1009.7
20260506085005 66 167 4.0 12.0 0.00 0.00 0.00 74 1009.7
20260506084526 66 158 3.0 11.0 0.00 0.00 0.00 73 1009.7
20260506084005 67 153 3.0 9.0 0.00 0.00 0.00 73 1009.7
20260506083526 67 166 3.0 11.0 0.00 0.00 0.00 73 1009.7
20260506083026 67 163 3.0 11.0 0.00 0.00 0.00 73 1009.7
20260506082526 67 163 4.0 9.0 0.00 0.00 0.00 72 1009.8
20260506082026 67 159 4.0 13.0 0.00 0.00 0.00 72 1009.7
20260506081505 67 156 4.0 13.0 0.00 0.00 0.00 72 1009.6
20260506081005 67 158 3.0 12.0 0.00 0.00 0.00 72 1009.6
20260506080505 68 165 3.0 9.0 0.00 0.00 0.00 72 1009.6
20260506073505 68 161 4.0 18.0 0.00 0.00 0.00 69 1009.8
20260506073026 69 169 4.0 13.0 0.00 0.00 0.00 69 1009.8
20260506072526 69 166 5.0 13.0 0.00 0.00 0.00 68 1009.9
20260506072005 69 159 5.0 13.0 0.00 0.00 0.00 68 1009.9
20260506071526 69 162 4.0 14.0 0.00 0.00 0.00 68 1009.9
20260506071026 69 158 5.0 14.0 0.00 0.00 0.00 67 1009.9
20260506070526 70 161 5.0 14.0 0.00 0.00 0.00 66 1009.9
20260506062505 70 172 3.0 10.0 0.00 0.00 0.00 63 1010.1
20260506062026 71 168 4.0 12.0 0.00 0.00 0.00 63 1010.0
20260506061505 71 168 4.0 12.0 0.00 0.00 0.00 63 1010.0
20260506061026 71 179 3.0 13.0 0.00 0.00 0.00 62 1010.0
20260506060526 71 181 4.0 13.0 0.00 0.00 0.00 62 1010.0
20260506051026 72 172 5.0 22.0 0.00 0.00 0.00 57 1010.4
20260506050505 72 166 5.0 22.0 0.00 0.00 0.00 56 1010.5
20260506045005 73 168 5.0 16.0 0.00 0.00 0.00 54 1010.5
20260506044505 73 170 5.0 16.0 0.00 0.00 0.00 54 1010.5
20260506044005 73 173 5.0 20.0 0.00 0.00 0.00 54 1010.5
20260506043026 73 163 5.0 16.0 0.00 0.00 0.00 53 1010.4
20260506042526 73 171 5.0 13.0 0.00 0.00 0.00 53 1010.4
20260506042027 73 177 5.0 13.0 0.00 0.00 0.00 53 1010.4
20260506041526 73 174 5.0 18.0 0.00 0.00 0.00 53 1010.5
20260506041027 73 177 5.0 19.0 0.00 0.00 0.00 53 1010.5
20260506040526 73 178 5.0 19.0 0.00 0.00 0.00 53 1010.4
20260506040027 73 177 5.0 16.0 0.00 0.00 0.00 53 1010.4
20260506035505 73 171 5.0 16.0 0.00 0.00 0.00 52 1010.5
20260506035005 73 164 5.0 14.0 0.00 0.00 0.00 52 1010.5
20260506034505 73 162 5.0 17.0 0.00 0.00 0.00 52 1010.4
20260506034006 73 170 6.0 17.0 0.00 0.00 0.00 52 1010.4
20260506033505 73 177 5.0 14.0 0.00 0.00 0.00 52 1010.4
20260506033005 73 171 3.0 11.0 0.00 0.00 0.00 51 1010.3
20260506032528 73 166 3.0 11.0 0.00 0.00 0.00 51 1010.3
20260506032026 73 163 3.0 8.0 0.00 0.00 0.00 51 1010.3
20260506031526 73 159 4.0 17.0 0.00 0.00 0.00 50 1010.3
20260506031026 73 166 4.0 17.0 0.00 0.00 0.00 50 1010.3
20260506030505 74 172 3.0 12.0 0.00 0.00 0.00 50 1010.3
20260506030005 74 166 3.0 20.0 0.00 0.00 0.00 49 1010.3
20260506025527 74 156 4.0 20.0 0.00 0.00 0.00 48 1010.4
20260506025005 74 146 4.0 11.0 0.00 0.00 0.00 48 1010.4
20260506024526 74 156 3.0 11.0 0.00 0.00 0.00 48 1010.4
20260506024027 74 161 3.0 12.0 0.00 0.00 0.00 47 1010.5
20260506023505 74 163 4.0 12.0 0.00 0.00 0.00 47 1010.6
20260506023027 74 155 4.0 11.0 0.00 0.00 0.00 46 1010.5
20260506022505 74 144 4.0 10.0 0.00 0.00 0.00 46 1010.5
20260506022027 74 162 4.0 10.0 0.00 0.00 0.00 45 1010.5
20260506021505 74 165 3.0 10.0 0.00 0.00 0.00 45 1010.5
20260506021005 74 159 3.0 9.0 0.00 0.00 0.00 44 1010.5
20260506020526 74 160 3.0 9.0 0.00 0.00 0.00 43 1010.5
20260506020027 75 159 3.0 9.0 0.00 0.00 0.00 42 1010.5
20260506015526 75 160 2.0 6.0 0.00 0.00 0.00 42 1010.4
20260506015026 75 167 3.0 8.0 0.00 0.00 0.00 41 1010.3
20260506014505 76 167 3.0 8.0 0.00 0.00 0.00 40 1010.3
20260506014005 76 171 4.0 11.0 0.00 0.00 0.00 40 1010.3
20260506013505 76 167 5.0 11.0 0.00 0.00 0.00 39 1010.2
20260506013007 76 160 3.0 10.0 0.00 0.00 0.00 39 1010.2
20260506012505 76 162 3.0 11.0 0.00 0.00 0.00 39 1010.1
20260506012006 76 172 4.0 12.0 0.00 0.00 0.00 39 1010.2
20260506011505 76 171 3.0 12.0 0.00 0.00 0.00 39 1010.0
20260506011005 76 167 3.0 10.0 0.00 0.00 0.00 40 1009.9
20260506010526 77 170 3.0 10.0 0.00 0.00 0.00 38 1009.9
20260506010005 77 169 3.0 11.0 0.00 0.00 0.00 38 1009.8
20260506005526 77 173 5.0 14.0 0.00 0.00 0.00 37 1009.8
20260506005026 77 178 5.0 14.0 0.00 0.00 0.00 37 1009.7
20260506004526 77 180 4.0 13.0 0.00 0.00 0.00 37 1009.7
20260506004026 77 164 3.0 9.0 0.00 0.00 0.00 38 1009.6
20260506003505 77 157 3.0 8.0 0.00 0.00 0.00 37 1009.4
20260506003005 77 161 2.0 7.0 0.00 0.00 0.00 37 1009.5
20260506002526 78 164 2.0 8.0 0.00 0.00 0.00 37 1009.4
20260506002005 78 164 2.0 11.0 0.00 0.00 0.00 36 1009.4
20260506001526 78 161 3.0 11.0 0.00 0.00 0.00 35 1009.2
20260506001005 79 164 3.0 9.0 0.00 0.00 0.00 34 1009.3
20260506000526 79 170 3.0 9.0 0.00 0.00 0.00 34 1009.3
20260506000027 79 173 3.0 12.0 0.00 0.00 0.00 34 1009.2
20260505235526 80 177 4.0 14.0 0.00 0.00 0.00 33 1009.2
20260505235006 80 178 4.0 14.0 0.00 0.00 0.00 33 1009.2
20260505234505 80 175 3.0 13.0 0.00 0.00 0.00 32 1009.1
20260505234005 80 174 3.0 9.0 0.00 0.00 0.00 32 1009.1
20260505233526 80 164 3.0 10.0 0.00 0.00 0.00 32 1009.0
20260505233026 80 169 5.0 12.0 0.00 0.00 0.00 31 1009.0
20260505232526 81 171 5.0 12.0 0.00 0.00 0.00 31 1009.0
20260505232005 81 169 5.0 12.0 0.00 0.00 0.00 31 1009.1
20260505231526 81 178 5.0 12.0 0.00 0.00 0.00 30 1009.0
20260505231005 81 174 4.0 12.0 0.00 0.00 0.00 31 1009.1
20260505230506 81 175 5.0 16.0 0.00 0.00 0.00 30 1009.1
20260505230027 82 176 5.0 16.0 0.00 0.00 0.00 30 1009.1
20260505225505 82 170 4.0 15.0 0.00 0.00 0.00 30 1009.1
20260505225006 82 169 5.0 17.0 0.00 0.00 0.00 30 1009.1
20260505224526 82 182 5.0 17.0 0.00 0.00 0.00 30 1009.0